TimeEDT,TemperatureF,Dew PointF,Humidity,Sea Level PressureIn,VisibilityMPH,Wind Direction,Wind SpeedMPH,Gust SpeedMPH,PrecipitationIn,Events,Conditions,WindDirDegrees,DateUTC
12:55 AM,39.9,26.1,58,30.27,10.0,West,5.8,-,N/A,,Clear,280,2012-10-27 04:55:00
1:55 AM,37.0,25.0,62,30.27,10.0,WSW,4.6,-,N/A,,Clear,250,2012-10-27 05:55:00
2:55 AM,34.0,26.1,73,30.27,10.0,SW,4.6,-,N/A,,Clear,220,2012-10-27 06:55:00
3:55 AM,34.0,25.0,70,30.26,10.0,SW,5.8,-,N/A,,Partly Cloudy,220,2012-10-27 07:55:00
4:55 AM,33.1,25.0,72,30.26,10.0,Calm,Calm,-,N/A,,Partly Cloudy,0,2012-10-27 08:55:00
5:55 AM,32.0,25.0,75,30.27,10.0,Calm,Calm,-,N/A,,Clear,0,2012-10-27 09:55:00
6:55 AM,32.0,25.0,75,30.28,10.0,Calm,Calm,-,N/A,,Overcast,0,2012-10-27 10:55:00
7:55 AM,32.0,24.1,73,30.30,10.0,Calm,Calm,-,N/A,,Overcast,0,2012-10-27 11:55:00
8:55 AM,33.1,25.0,72,30.30,10.0,Calm,Calm,-,N/A,,Overcast,0,2012-10-27 12:55:00
9:55 AM,36.0,28.0,73,30.30,10.0,SSW,3.5,-,N/A,,Overcast,200,2012-10-27 13:55:00
10:55 AM,39.9,28.9,65,30.30,10.0,Calm,Calm,-,N/A,,Scattered Clouds,0,2012-10-27 14:55:00
11:55 AM,43.0,30.0,60,30.28,10.0,NW,5.8,-,N/A,,Overcast,320,2012-10-27 15:55:00
12:55 PM,43.0,30.0,60,30.28,10.0,West,5.8,-,N/A,,Overcast,260,2012-10-27 16:55:00
1:55 PM,43.0,27.0,53,30.27,10.0,Variable,3.5,-,N/A,,Overcast,0,2012-10-27 17:55:00
2:55 PM,44.1,27.0,51,30.25,10.0,Variable,5.8,-,N/A,,Overcast,0,2012-10-27 18:55:00
3:55 PM,44.1,24.1,45,30.25,10.0,Variable,5.8,-,N/A,,Overcast,0,2012-10-27 19:55:00
4:55 PM,43.0,23.0,45,30.26,10.0,West,8.1,-,N/A,,Overcast,280,2012-10-27 20:55:00
5:55 PM,41.0,30.9,67,30.27,10.0,NNW,9.2,-,N/A,,Overcast,330,2012-10-27 21:55:00
6:55 PM,39.0,30.0,70,30.28,10.0,North,6.9,-,N/A,,Overcast,350,2012-10-27 22:55:00
7:17 PM,39.0,30.0,70,30.27,10.0,NW,5.8,-,N/A,,Overcast,320,2012-10-27 23:17:00
7:55 PM,37.9,32.0,79,30.30,10.0,NNE,5.8,-,0.00,Rain,Light Rain,20,2012-10-27 23:55:00
8:55 PM,37.0,30.9,79,30.30,10.0,North,8.1,-,0.00,,Overcast,10,2012-10-28 00:55:00
9:55 PM,37.9,30.0,73,30.30,10.0,NNE,4.6,-,N/A,,Overcast,20,2012-10-28 01:55:00
10:55 PM,37.9,28.9,70,30.31,10.0,Variable,3.5,-,N/A,,Overcast,0,2012-10-28 02:55:00
11:55 PM,37.9,27.0,65,30.30,10.0,North,5.8,-,N/A,,Overcast,360,2012-10-28 03:55:00